QPF
0.01 0.00 0.00 0.00 0.01 0.01 0.01 0.01 0.02 0.02 0.02 0.02 0.01 0.01 0.01 0.01 0.01 0.02 0.02 0.03 0.03 0.03 0.03 0.03 0.02 0.02 0.02 0.02 0.02 0.02 0.02 0.02 0.02 0.01 0.01 0.01 0.01 0.00 0.00 0.00 0.00 0.00 0.00
0.01 0.01 0.01 0.01 0.01 0.01 0.01 0.01 0.02 0.02 0.02 0.02 0.02 0.01 0.01 0.01 0.01 0.01 0.01 0.01 0.01 0.01 0.02 0.02 0.02 0.02 0.02 0.02 0.02 0.02 0.02 0.02 0.02 0.01 0.01 0.01 0.01 0.00 0.00 0.00 0.00 0.00 0.00
0.00 0.01 0.01 0.01 0.01 0.02 0.02 0.01 0.01 0.02 0.02 0.02 0.02 0.02 0.01 0.01 0.01 0.01 0.01 0.01 0.01 0.01 0.01 0.01 0.01 0.02 0.02 0.02 0.02 0.02 0.02 0.02 0.02 0.02 0.01 0.01 0.01 0.01 0.01 0.00 0.00 0.00 0.00
0.00 0.00 0.01 0.01 0.01 0.02 0.02 0.02 0.02 0.02 0.02 0.01 0.02 0.02 0.02 0.01 0.01 0.01 0.01 0.01 0.01 0.01 0.01 0.01 0.02 0.02 0.01 0.01 0.02 0.02 0.02 0.02 0.02 0.02 0.02 0.02 0.01 0.01 0.01 0.01 0.01 0.01 0.01
0.00 0.00 0.01 0.01 0.01 0.01 0.02 0.02 0.02 0.02 0.01 0.01 0.01 0.02 0.02 0.02 0.02 0.02 0.01 0.01 0.01 0.01 0.01 0.01 0.01 0.02 0.02 0.02 0.02 0.02 0.02 0.02 0.02 0.02 0.02 0.02 0.02 0.01 0.01 0.01 0.01 0.01 0.01
0.00 0.00 0.00 0.01 0.01 0.01 0.02 0.02 0.02 0.02 0.02 0.02 0.02 0.01 0.01 0.02 0.02 0.02 0.01 0.01 0.01 0.01 0.01 0.01 0.01 0.01 0.01 0.01 0.02 0.02 0.02 0.02 0.02 0.02 0.02 0.02 0.02 0.01 0.01 0.01 0.01 0.01 0.01
0.00 0.00 0.00 0.00 0.01 0.01 0.01 0.01 0.02 0.02 0.02 0.02 0.02 0.02 0.02 0.02 0.02 0.02 0.01 0.01 0.01 0.01 0.01 0.01 0.01 0.01 0.01 0.01 0.01 0.01 0.01 0.02 0.02 0.01 0.02 0.01 0.01 0.01 0.01 0.01 0.01 0.01 0.01
0.00 0.00 0.00 0.00 0.00 0.00 0.01 0.01 0.02 0.02 0.02 0.02 0.02 0.02 0.02 0.02 0.03 0.02 0.02 0.01 0.01 0.01 0.01 0.01 0.01 0.01 0.01 0.01 0.01 0.01 0.01 0.01 0.01 0.01 0.01 0.01 0.01 0.01 0.01 0.01 0.02 0.03 0.03
0.00 0.00 0.00 0.00 0.00 0.00 0.01 0.01 0.01 0.02 0.02 0.02 0.02 0.02 0.02 0.02 0.03 0.03 0.03 0.02 0.02 0.01 0.01 0.01 0.01 0.01 0.01 0.01 0.01 0.01 0.01 0.01 0.02 0.02 0.02 0.02 0.03 0.03 0.02 0.03 0.03 0.03 0.03
0.00 0.00 0.01 0.01 0.01 0.01 0.01 0.01 0.01 0.02 0.02 0.03 0.03 0.03 0.03 0.03 0.03 0.03 0.03 0.03 0.02 0.02 0.01 0.01 0.01 0.01 0.02 0.02 0.02 0.01 0.02 0.02 0.02 0.02 0.02 0.02 0.02 0.03 0.03 0.03 0.03 0.03 0.03
0.01 0.01 0.01 0.01 0.01 0.01 0.01 0.02 0.02 0.02 0.02 0.02 0.03 0.03 0.03 0.03 0.03 0.03 0.03 0.02 0.02 0.02 0.01 0.01 0.01 0.01 0.02 0.02 0.02 0.02 0.02 0.02 0.02 0.02 0.02 0.02 0.02 0.03 0.04 0.04 0.04 0.04 0.03
0.01 0.01 0.01 0.01 0.01 0.01 0.01 0.02 0.02 0.02 0.02 0.02 0.02 0.02 0.02 0.03 0.04 0.04 0.03 0.03 0.02 0.02 0.01 0.01 0.01 0.02 0.02 0.02 0.02 0.02 0.02 0.02 0.02 0.02 0.02 0.02 0.02 0.02 0.02 0.02 0.02 0.02 0.02
0.01 0.01 0.01 0.01 0.01 0.01 0.01 0.01 0.02 0.02 0.02 0.02 0.01 0.01 0.01 0.02 0.03 0.03 0.03 0.03 0.03 0.02 0.02 0.02 0.02 0.02 0.02 0.02 0.02 0.01 0.01 0.01 0.02 0.02 0.02 0.01 0.01 0.01 0.01 0.01 0.02 0.02 0.03
0.01 0.01 0.01 0.01 0.01 0.01 0.01 0.01 0.01 0.01 0.01 0.01 0.01 0.01 0.01 0.01 0.02 0.02 0.02 0.02 0.02 0.02 0.02 0.02 0.02 0.02 0.02 0.02 0.01 0.01 0.01 0.01 0.01 0.01 0.01 0.01 0.01 0.01 0.01 0.01 0.02 0.02 0.03
0.00 0.00 0.00 0.01 0.01 0.01 0.01 0.01 0.01 0.01 0.01 0.01 0.01 0.01 0.02 0.02 0.02 0.01 0.02 0.02 0.02 0.03 0.03 0.03 0.02 0.02 0.02 0.01 0.01 0.01 0.01 0.01 0.01 0.01 0.01 0.01 0.01 0.02 0.02 0.02 0.02 0.02 0.03
0.00 0.00 0.00 0.00 0.01 0.01 0.01 0.01 0.01 0.01 0.01 0.02 0.02 0.02 0.02 0.02 0.02 0.01 0.01 0.01 0.02 0.02 0.03 0.02 0.02 0.01 0.01 0.01 0.01 0.01 0.01 0.01 0.01 0.01 0.01 0.01 0.01 0.02 0.02 0.02 0.03 0.03 0.03
0.01 0.01 0.00 0.00 0.00 0.00 0.01 0.01 0.01 0.01 0.02 0.01 0.02 0.02 0.02 0.02 0.02 0.01 0.01 0.01 0.01 0.02 0.02 0.01 0.01 0.01 0.01 0.01 0.01 0.01 0.01 0.01 0.01 0.02 0.02 0.02 0.02 0.02 0.03 0.02 0.02 0.03 0.03
0.00 0.00 0.00 0.00 0.01 0.01 0.01 0.01 0.01 0.01 0.01 0.01 0.01 0.02 0.02 0.01 0.01 0.01 0.01 0.01 0.01 0.01 0.01 0.01 0.01 0.01 0.02 0.02 0.02 0.02 0.02 0.02 0.02 0.02 0.02 0.02 0.03 0.03 0.03 0.03 0.02 0.02 0.02
0.01 0.01 0.01 0.01 0.01 0.01 0.01 0.01 0.01 0.01 0.01 0.01 0.01 0.01 0.01 0.01 0.01 0.01 0.01 0.01 0.01 0.01 0.01 0.01 0.01 0.01 0.02 0.02 0.02 0.02 0.02 0.02 0.02 0.03 0.03 0.03 0.03 0.03 0.03 0.02 0.02 0.02 0.03
0.01 0.01 0.01 0.01 0.01 0.01 0.01 0.01 0.01 0.01 0.01 0.01 0.01 0.01 0.01 0.01 0.01 0.01 0.01 0.01 0.01 0.01 0.01 0.01 0.01 0.01 0.02 0.02 0.02 0.02 0.02 0.02 0.02 0.03 0.03 0.03 0.03 0.03 0.03 0.02 0.02 0.02 0.02
0.01 0.01 0.01 0.01 0.01 0.01 0.01 0.01 0.01 0.01 0.01 0.01 0.01 0.01 0.01 0.01 0.01 0.01 0.01 0.01 0.01 0.01 0.01 0.01 0.01 0.01 0.02 0.02 0.02 0.02 0.02 0.02 0.02 0.02 0.02 0.03 0.03 0.03 0.03 0.03 0.03 0.02 0.02
0.01 0.01 0.01 0.01 0.01 0.01 0.01 0.01 0.01 0.01 0.01 0.01 0.01 0.01 0.01 0.01 0.01 0.01 0.01 0.01 0.01 0.01 0.01 0.02 0.02 0.02 0.02 0.03 0.03 0.03 0.03 0.02 0.02 0.02 0.02 0.02 0.02 0.03 0.02 0.03 0.03 0.03 0.03
0.01 0.01 0.01 0.01 0.01 0.01 0.01 0.01 0.01 0.01 0.01 0.01 0.01 0.01 0.01 0.01 0.01 0.01 0.01 0.01 0.01 0.01 0.01 0.01 0.02 0.02 0.02 0.02 0.02 0.02 0.03 0.02 0.02 0.02 0.02 0.02 0.02 0.02 0.02 0.02 0.02 0.02 0.02
0.02 0.02 0.01 0.01 0.01 0.01 0.01 0.01 0.01 0.01 0.01 0.01 0.01 0.01 0.01 0.01 0.01 0.01 0.01 0.01 0.01 0.01 0.01 0.01 0.01 0.01 0.01 0.02 0.02 0.02 0.02 0.02 0.02 0.03 0.03 0.03 0.02 0.02 0.02 0.02 0.02 0.02 0.02
0.02 0.02 0.02 0.01 0.01 0.01 0.01 0.01 0.01 0.01 0.01 0.01 0.01 0.01 0.01 0.01 0.01 0.00 0.00 0.00 0.01 0.01 0.01 0.01 0.01 0.01 0.01 0.01 0.02 0.02 0.02 0.02 0.03 0.03 0.03 0.03 0.03 0.02 0.02 0.02 0.02 0.02 0.02
0.01 0.01 0.02 0.02 0.01 0.01 0.00 0.00 0.00 0.00 0.00 0.00 0.00 0.00 0.00 0.01 0.00 0.00 0.00 0.00 0.00 0.00 0.01 0.01 0.01 0.01 0.01 0.01 0.01 0.02 0.02 0.02 0.03 0.03 0.03 0.03 0.03 0.03 0.03 0.03 0.02 0.02 0.02
MSLP
1015.34 1015.23 1015.09 1014.91 1014.70 1014.46 1014.22 1014.00 1013.84 1013.76 1013.79 1013.94 1014.22 1014.59 1015.05 1015.57 1016.11 1016.64 1017.14 1017.60 1018.01 1018.36 1018.68 1018.98 1019.28 1019.60 1019.96 1020.37 1020.83 1021.34 1021.89 1022.47 1023.06 1023.65 1024.21 1024.74 1025.23 1025.66 1026.05 1026.38 1026.68 1026.94 1027.17
1015.64 1015.49 1015.29 1015.05 1014.75 1014.41 1014.05 1013.71 1013.42 1013.20 1013.10 1013.11 1013.27 1013.55 1013.94 1014.41 1014.93 1015.47 1016.01 1016.51 1016.97 1017.38 1017.74 1018.07 1018.38 1018.70 1019.05 1019.43 1019.88 1020.38 1020.94 1021.54 1022.18 1022.82 1023.46 1024.07 1024.63 1025.14 1025.58 1025.96 1026.28 1026.54 1026.75
1015.95 1015.78 1015.56 1015.26 1014.91 1014.49 1014.05 1013.61 1013.19 1012.85 1012.60 1012.47 1012.49 1012.64 1012.92 1013.31 1013.78 1014.31 1014.85 1015.39 1015.90 1016.37 1016.78 1017.16 1017.51 1017.84 1018.19 1018.57 1018.99 1019.48 1020.03 1020.63 1021.29 1021.96 1022.65 1023.31 1023.94 1024.50 1024.99 1025.41 1025.75 1026.02 1026.21
1016.26 1016.09 1015.85 1015.53 1015.14 1014.69 1014.19 1013.67 1013.17 1012.71 1012.32 1012.05 1011.91 1011.92 1012.06 1012.34 1012.73 1013.20 1013.72 1014.27 1014.81 1015.32 1015.79 1016.22 1016.60 1016.96 1017.32 1017.70 1018.11 1018.57 1019.10 1019.69 1020.33 1021.01 1021.71 1022.40 1023.06 1023.67 1024.20 1024.66 1025.02 1025.30 1025.50
1016.58 1016.39 1016.15 1015.83 1015.43 1014.97 1014.44 1013.88 1013.30 1012.76 1012.26 1011.86 1011.57 1011.42 1011.42 1011.55 1011.82 1012.20 1012.66 1013.18 1013.72 1014.25 1014.75 1015.21 1015.63 1016.02 1016.39 1016.76 1017.15 1017.59 1018.08 1018.64 1019.25 1019.91 1020.59 1021.29 1021.96 1022.60 1023.16 1023.66 1024.06 1024.37 1024.60
1016.91 1016.72 1016.46 1016.14 1015.75 1015.28 1014.75 1014.17 1013.56 1012.95 1012.37 1011.86 1011.44 1011.14 1010.98 1010.97 1011.10 1011.36 1011.72 1012.17 1012.66 1013.17 1013.67 1014.15 1014.58 1014.98 1015.36 1015.72 1016.10 1016.50 1016.95 1017.46 1018.02 1018.64 1019.30 1019.98 1020.65 1021.29 1021.89 1022.42 1022.87 1023.24 1023.51
1017.29 1017.07 1016.81 1016.48 1016.08 1015.62 1015.09 1014.50 1013.87 1013.23 1012.59 1012.00 1011.47 1011.05 1010.75 1010.58 1010.57 1010.69 1010.93 1011.27 1011.69 1012.14 1012.60 1013.05 1013.48 1013.87 1014.24 1014.59 1014.94 1015.31 1015.72 1016.18 1016.69 1017.25 1017.87 1018.51 1019.17 1019.82 1020.44 1021.01 1021.51 1021.94 1022.28
1017.76 1017.50 1017.19 1016.83 1016.42 1015.94 1015.40 1014.81 1014.18 1013.51 1012.84 1012.19 1011.60 1011.08 1010.66 1010.37 1010.21 1010.19 1010.30 1010.52 1010.83 1011.19 1011.58 1011.98 1012.37 1012.74 1013.08 1013.41 1013.73 1014.07 1014.44 1014.85 1015.30 1015.82 1016.38 1016.99 1017.62 1018.26 1018.90 1019.50 1020.06 1020.56 1020.98
1018.35 1018.03 1017.65 1017.23 1016.77 1016.25 1015.69 1015.08 1014.43 1013.75 1013.07 1012.39 1011.74 1011.16 1010.66 1010.27 1010.00 1009.85 1009.83 1009.92 1010.11 1010.36 1010.66 1010.99 1011.32 1011.64 1011.95 1012.25 1012.55 1012.86 1013.19 1013.56 1013.98 1014.44 1014.95 1015.52 1016.12 1016.74 1017.37 1018.00 1018.60 1019.16 1019.66
1019.07 1018.66 1018.20 1017.69 1017.14 1016.56 1015.94 1015.29 1014.61 1013.92 1013.22 1012.52 1011.85 1011.24 1010.69 1010.23 1009.87 1009.63 1009.49 1009.46 1009.53 1009.67 1009.87 1010.11 1010.36 1010.63 1010.90 1011.18 1011.46 1011.75 1012.06 1012.40 1012.78 1013.20 1013.66 1014.18 1014.74 1015.33 1015.95 1016.58 1017.20 1017.81 1018.38
1019.92 1019.41 1018.84 1018.22 1017.57 1016.89 1016.19 1015.47 1014.74 1014.02 1013.29 1012.58 1011.91 1011.28 1010.70 1010.20 1009.79 1009.47 1009.24 1009.11 1009.07 1009.10 1009.20 1009.34 1009.53 1009.74 1009.97 1010.22 1010.48 1010.76 1011.06 1011.38 1011.73 1012.12 1012.55 1013.01 1013.52 1014.07 1014.66 1015.27 1015.90 1016.53 1017.14
1020.85 1020.24 1019.56 1018.83 1018.07 1017.27 1016.47 1015.66 1014.87 1014.09 1013.33 1012.60 1011.91 1011.27 1010.69 1010.16 1009.71 1009.33 1009.03 1008.82 1008.67 1008.61 1008.61 1008.67 1008.78 1008.94 1009.13 1009.36 1009.61 1009.88 1010.18 1010.49 1010.83 1011.19 1011.58 1012.00 1012.46 1012.96 1013.49 1014.07 1014.68 1015.31 1015.95
1021.82 1021.13 1020.36 1019.53 1018.65 1017.74 1016.83 1015.92 1015.04 1014.20 1013.39 1012.63 1011.92 1011.26 1010.66 1010.11 1009.62 1009.20 1008.83 1008.54 1008.31 1008.15 1008.06 1008.04 1008.08 1008.18 1008.34 1008.54 1008.78 1009.05 1009.35 1009.66 1009.99 1010.34 1010.69 1011.08 1011.48 1011.93 1012.42 1012.94 1013.52 1014.13 1014.77
1022.78 1022.03 1021.19 1020.28 1019.31 1018.30 1017.29 1016.30 1015.33 1014.41 1013.54 1012.73 1011.98 1011.29 1010.65 1010.07 1009.54 1009.06 1008.63 1008.26 1007.94 1007.70 1007.52 1007.41 1007.38 1007.42 1007.53 1007.70 1007.93 1008.20 1008.49 1008.81 1009.13 1009.46 1009.80 1010.15 1010.52 1010.92 1011.36 1011.85 1012.38 1012.98 1013.61
1023.66 1022.89 1022.02 1021.06 1020.03 1018.96 1017.88 1016.81 1015.77 1014.77 1013.84 1012.97 1012.16 1011.42 1010.73 1010.09 1009.50 1008.95 1008.44 1007.98 1007.57 1007.23 1006.95 1006.76 1006.65 1006.62 1006.68 1006.81 1007.01 1007.26 1007.55 1007.85 1008.17 1008.49 1008.82 1009.15 1009.49 1009.86 1010.27 1010.73 1011.25 1011.82 1012.46
1024.41 1023.65 1022.78 1021.82 1020.78 1019.69 1018.58 1017.46 1016.37 1015.32 1014.32 1013.38 1012.51 1011.70 1010.94 1010.23 1009.55 1008.92 1008.31 1007.75 1007.24 1006.79 1006.41 1006.11 1005.91 1005.80 1005.79 1005.87 1006.02 1006.23 1006.49 1006.78 1007.08 1007.39 1007.70 1008.02 1008.35 1008.71 1009.12 1009.58 1010.09 1010.68 1011.32
1024.99 1024.27 1023.44 1022.52 1021.51 1020.44 1019.33 1018.21 1017.10 1016.01 1014.97 1013.98 1013.04 1012.16 1011.33 1010.53 1009.76 1009.02 1008.32 1007.65 1007.02 1006.46 1005.97 1005.56 1005.26 1005.05 1004.95 1004.95 1005.03 1005.18 1005.38 1005.62 1005.89 1006.17 1006.46 1006.77 1007.11 1007.48 1007.90 1008.38 1008.93 1009.55 1010.23
1025.38 1024.71 1023.95 1023.09 1022.15 1021.14 1020.08 1018.99 1017.89 1016.80 1015.74 1014.72 1013.74 1012.80 1011.89 1011.01 1010.16 1009.33 1008.52 1007.74 1007.01 1006.34 1005.73 1005.21 1004.79 1004.48 1004.27 1004.16 1004.14 1004.20 1004.31 1004.48 1004.68 1004.91 1005.17 1005.47 1005.81 1006.20 1006.65 1007.18 1007.78 1008.45 1009.20
1025.58 1024.98 1024.29 1023.52 1022.66 1021.73 1020.75 1019.72 1018.67 1017.62 1016.58 1015.55 1014.55 1013.58 1012.62 1011.68 1010.76 1009.85 1008.96 1008.10 1007.27 1006.50 1005.79 1005.16 1004.62 1004.19 1003.86 1003.62 1003.47 1003.41 1003.41 1003.46 1003.56 1003.71 1003.92 1004.18 1004.50 1004.90 1005.39 1005.98 1006.65 1007.40 1008.22
1025.61 1025.07 1024.46 1023.78 1023.02 1022.18 1021.29 1020.34 1019.37 1018.37 1017.38 1016.38 1015.40 1014.42 1013.46 1012.50 1011.54 1010.59 1009.65 1008.72 1007.83 1006.97 1006.18 1005.45 1004.81 1004.26 1003.79 1003.42 1003.12 1002.90 1002.75 1002.66 1002.63 1002.66 1002.77 1002.97 1003.26 1003.66 1004.17 1004.79 1005.53 1006.37 1007.28
1025.53 1025.04 1024.50 1023.89 1023.21 1022.47 1021.66 1020.81 1019.92 1019.00 1018.08 1017.14 1016.20 1015.27 1014.33 1013.38 1012.43 1011.48 1010.52 1009.57 1008.64 1007.74 1006.88 1006.08 1005.35 1004.68 1004.09 1003.57 1003.11 1002.72 1002.39 1002.13 1001.93 1001.82 1001.80 1001.89 1002.11 1002.47 1002.98 1003.64 1004.43 1005.34 1006.34
1025.38 1024.93 1024.44 1023.89 1023.27 1022.60 1021.88 1021.10 1020.30 1019.47 1018.62 1017.76 1016.90 1016.02 1015.14 1014.25 1013.34 1012.41 1011.48 1010.54 1009.61 1008.69 1007.80 1006.94 1006.13 1005.37 1004.66 1004.00 1003.38 1002.82 1002.30 1001.85 1001.47 1001.18 1001.00 1000.97 1001.08 1001.38 1001.85 1002.50 1003.32 1004.27 1005.34
1025.23 1024.80 1024.33 1023.81 1023.24 1022.62 1021.95 1021.24 1020.50 1019.75 1018.98 1018.21 1017.42 1016.63 1015.83 1015.00 1014.15 1013.29 1012.39 1011.49 1010.57 1009.66 1008.76 1007.87 1007.01 1006.17 1005.36 1004.58 1003.82 1003.09 1002.40 1001.77 1001.20 1000.72 1000.38 1000.18 1000.17 1000.36 1000.76 1001.38 1002.18 1003.16 1004.27
1025.10 1024.68 1024.22 1023.71 1023.16 1022.56 1021.92 1021.26 1020.57 1019.88 1019.18 1018.48 1017.77 1017.05 1016.32 1015.57 1014.78 1013.97 1013.13 1012.26 1011.38 1010.48 1009.58 1008.68 1007.78 1006.89 1006.01 1005.13 1004.26 1003.39 1002.56 1001.76 1001.02 1000.38 999.87 999.52 999.37 999.44 999.74 1000.28 1001.04 1001.99 1003.11
1025.00 1024.58 1024.12 1023.61 1023.06 1022.46 1021.84 1021.20 1020.54 1019.89 1019.24 1018.59 1017.94 1017.28 1016.60 1015.90 1015.17 1014.40 1013.59 1012.75 1011.89 1011.00 1010.10 1009.19 1008.27 1007.35 1006.42 1005.49 1004.54 1003.59 1002.65 1001.73 1000.86 1000.09 999.43 998.95 998.66 998.61 998.80 999.24 999.92 1000.82 1001.91
1024.91 1024.49 1024.02 1023.50 1022.94 1022.34 1021.72 1021.09 1020.45 1019.82 1019.20 1018.58 1017.96 1017.33 1016.68 1016.00 1015.28 1014.52 1013.72 1012.89 1012.02 1011.13 1010.23 1009.31 1008.39 1007.45 1006.51 1005.54 1004.57 1003.58 1002.58 1001.60 1000.66 999.80 999.05 998.45 998.06 997.88 997.96 998.30 998.89 999.70 1000.72
Thickness
5487 5488 5490 5491 5493 5494 5494 5495 5495 5495 5495 5495 5494 5493 5492 5491 5490 5488 5487 5486 5485 5484 5483 5482 5481 5481 5480 5479 5478 5476 5475 5474 5474 5475 5473 5471 5470 5468 5468 5467 5467 5467 5466
5475 5476 5477 5479 5480 5481 5482 5483 5483 5484 5484 5484 5484 5483 5481 5481 5480 5479 5477 5476 5475 5474 5473 5472 5471 5470 5469 5468 5467 5466 5465 5464 5462 5463 5462 5459 5458 5458 5457 5456 5456 5456 5456
5462 5463 5464 5466 5467 5468 5469 5470 5471 5472 5472 5472 5472 5472 5471 5470 5470 5469 5468 5466 5465 5464 5462 5461 5460 5458 5458 5456 5455 5455 5454 5453 5451 5450 5451 5448 5447 5446 5445 5444 5444 5444 5445
5449 5450 5451 5452 5454 5455 5455 5456 5458 5459 5459 5460 5460 5460 5460 5459 5459 5458 5457 5456 5454 5453 5451 5450 5449 5447 5446 5445 5444 5443 5442 5440 5439 5438 5438 5436 5435 5434 5432 5432 5432 5432 5433
5436 5437 5438 5439 5440 5441 5442 5443 5445 5445 5446 5447 5447 5447 5447 5447 5446 5446 5445 5444 5443 5441 5440 5438 5437 5436 5435 5434 5433 5431 5429 5428 5426 5425 5425 5424 5423 5421 5420 5420 5420 5420 5421
5422 5423 5424 5425 5426 5427 5428 5429 5431 5432 5432 5433 5433 5433 5433 5433 5433 5433 5432 5432 5430 5429 5427 5426 5425 5424 5422 5421 5420 5420 5418 5416 5415 5413 5413 5413 5413 5411 5409 5408 5406 5406 5408
5408 5409 5410 5411 5412 5413 5414 5415 5417 5417 5418 5418 5419 5419 5420 5420 5420 5420 5419 5418 5417 5416 5415 5413 5412 5411 5409 5408 5407 5407 5405 5404 5404 5402 5401 5401 5400 5399 5396 5395 5393 5392 5394
5393 5394 5395 5397 5398 5399 5400 5401 5402 5403 5403 5403 5404 5405 5405 5406 5406 5407 5406 5405 5404 5403 5401 5400 5399 5398 5396 5395 5394 5393 5393 5392 5391 5389 5389 5388 5386 5385 5383 5381 5380 5378 5378
5377 5379 5380 5382 5383 5384 5385 5386 5387 5387 5388 5388 5388 5389 5390 5391 5392 5392 5391 5391 5390 5389 5388 5387 5386 5385 5384 5383 5381 5380 5380 5379 5378 5376 5375 5374 5373 5371 5369 5367 5365 5362 5363
5360 5362 5364 5366 5367 5368 5370 5371 5371 5372 5373 5373 5373 5373 5374 5375 5376 5376 5376 5376 5376 5375 5374 5373 5372 5371 5371 5369 5368 5367 5367 5366 5364 5363 5362 5361 5360 5358 5356 5354 5351 5348 5347
5343 5345 5347 5349 5351 5352 5354 5355 5356 5357 5357 5358 5358 5358 5359 5359 5360 5360 5360 5360 5360 5360 5360 5359 5358 5357 5357 5356 5355 5354 5354 5353 5351 5350 5348 5347 5346 5344 5342 5339 5337 5334 5332
5326 5328 5330 5332 5334 5336 5338 5339 5340 5341 5341 5342 5342 5343 5342 5343 5343 5344 5344 5344 5344 5345 5345 5344 5344 5343 5343 5343 5342 5342 5340 5339 5337 5335 5334 5334 5332 5330 5328 5326 5323 5320 5319
5309 5311 5314 5316 5317 5319 5321 5322 5323 5324 5325 5326 5326 5327 5327 5327 5327 5328 5328 5329 5330 5330 5330 5330 5330 5330 5329 5329 5328 5327 5325 5323 5322 5321 5320 5320 5318 5316 5314 5312 5309 5307 5304
5293 5295 5297 5299 5301 5302 5304 5306 5306 5307 5308 5309 5310 5310 5310 5310 5311 5312 5312 5313 5314 5315 5315 5316 5316 5315 5315 5314 5313 5312 5310 5308 5307 5307 5306 5305 5303 5301 5299 5297 5294 5292 5290
5277 5279 5281 5282 5283 5285 5287 5288 5290 5291 5291 5292 5293 5294 5294 5296 5296 5297 5297 5299 5299 5299 5300 5300 5301 5300 5299 5299 5297 5296 5295 5293 5292 5291 5290 5290 5288 5287 5285 5282 5280 5277 5275
5261 5262 5264 5266 5267 5269 5270 5272 5273 5275 5276 5277 5278 5278 5279 5280 5282 5283 5283 5284 5285 5285 5284 5284 5285 5284 5284 5283 5282 5281 5280 5279 5277 5276 5276 5275 5274 5272 5271 5268 5265 5263 5262
5244 5245 5247 5249 5251 5252 5253 5254 5256 5258 5259 5260 5261 5262 5263 5264 5266 5267 5268 5269 5269 5269 5267 5267 5268 5268 5268 5267 5266 5266 5265 5264 5263 5262 5261 5261 5259 5258 5256 5254 5252 5250 5249
5228 5230 5231 5233 5235 5235 5236 5237 5238 5240 5241 5242 5243 5244 5246 5247 5249 5250 5251 5252 5251 5250 5249 5250 5250 5251 5251 5251 5251 5251 5251 5250 5249 5248 5248 5247 5246 5244 5243 5241 5239 5237 5236
5214 5215 5216 5217 5218 5219 5219 5220 5221 5222 5223 5225 5225 5226 5227 5228 5230 5231 5231 5230 5231 5231 5232 5233 5233 5234 5235 5235 5236 5236 5236 5236 5235 5235 5234 5234 5233 5231 5230 5229 5227 5225 5222
5199 5200 5201 5201 5201 5202 5203 5204 5204 5205 5206 5207 5208 5208 5209 5210 5210 5210 5210 5210 5211 5212 5213 5214 5215 5216 5218 5220 5221 5221 5222 5222 5222 5222 5222 5221 5220 5219 5218 5216 5214 5213 5211
5186 5186 5186 5186 5186 5186 5187 5187 5188 5188 5189 5190 5191 5192 5194 5193 5193 5193 5193 5193 5193 5194 5196 5197 5199 5201 5202 5204 5205 5207 5208 5209 5209 5209 5209 5208 5207 5206 5205 5203 5202 5200 5198
5172 5172 5172 5171 5171 5171 5171 5172 5172 5172 5172 5173 5175 5175 5176 5176 5175 5176 5178 5178 5179 5179 5180 5182 5184 5185 5187 5188 5190 5192 5194 5195 5196 5196 5196 5196 5195 5194 5193 5191 5190 5188 5186
5160 5160 5159 5159 5158 5158 5158 5157 5157 5157 5157 5158 5158 5159 5159 5159 5160 5162 5163 5164 5165 5165 5166 5168 5169 5172 5173 5174 5176 5178 5181 5182 5183 5184 5184 5184 5183 5183 5182 5180 5179 5177 5175
5148 5147 5147 5146 5146 5145 5145 5145 5144 5144 5144 5144 5145 5145 5145 5146 5147 5148 5149 5150 5151 5152 5153 5154 5156 5158 5160 5162 5164 5166 5168 5170 5171 5172 5172 5173 5172 5172 5171 5170 5169 5167 5165
5137 5136 5135 5134 5134 5133 5133 5133 5132 5132 5132 5132 5133 5133 5134 5134 5135 5136 5137 5138 5139 5140 5141 5142 5144 5146 5148 5150 5152 5155 5156 5158 5160 5161 5162 5163 5163 5162 5162 5161 5160 5158 5156
5126 5125 5124 5124 5123 5122 5122 5122 5121 5121 5121 5122 5122 5123 5123 5124 5124 5125 5126 5126 5127 5129 5130 5132 5134 5136 5138 5140 5142 5145 5147 5149 5151 5151 5152 5153 5153 5154 5153 5153 5152 5150 5148